Powrót do katalogu

DELTA 1 DEB

AktywnyLEO
NORAD 10659·DEBRIS·🇺🇸 United States

Wystrzelony Jul 29, 1976 z Vandenberg Space Force Base

Loading…

Następne Przeloty (najbliższe 24 godziny)

TLE

ŚwieżeSource: Space-Track

Epoka: Sep 14, 2026, 07:16 UTC

1 10659U 76077V   26257.30296984 -.00000100  00000-0 -60357-3 0  9998
2 10659 102.1988 188.9510 0174902 286.0856 231.0560 12.09431659213409

Śledź DELTA 1 DEB w czasie rzeczywistym z AllMySat

Download on the App Store